| time (UTC) | temp F | wind direction | speed MPH | gust MPH | rain 1hr in | rain 24hr in | rain mn in | humidity % | barometer mb |
| 20260502130352 | 51 | 106 | 2.0 | 4.0 | 0.00 | 0.14 | 0.14 | 94 | 1010.3 |
| 20260502123335 | 48 | 60 | 0.0 | 2.0 | 0.00 | 0.14 | 0.14 | 98 | 1010.5 |
| 20260502122832 | 48 | 106 | 3.0 | 4.0 | 0.00 | 0.14 | 0.14 | 98 | 1010.5 |
| 20260502122327 | 48 | 72 | 2.0 | 4.0 | 0.00 | 0.14 | 0.14 | 98 | 1010.6 |
| 20260502121827 | 48 | 135 | 3.0 | 6.0 | 0.00 | 0.14 | 0.14 | 98 | 1010.8 |
| 20260502121323 | 48 | 133 | 3.0 | 4.0 | 0.00 | 0.14 | 0.14 | 98 | 1010.8 |
| 20260502120820 | 48 | 90 | 2.0 | 3.0 | 0.00 | 0.14 | 0.14 | 98 | 1010.8 |
| 20260502120317 | 48 | 109 | 2.0 | 2.0 | 0.00 | 0.14 | 0.14 | 99 | 1010.7 |
| 20260502115814 | 48 | 83 | 1.0 | 3.0 | 0.00 | 0.14 | 0.14 | 99 | 1010.7 |
| 20260502115311 | 48 | 127 | 2.0 | 2.0 | 0.00 | 0.14 | 0.14 | 99 | 1010.6 |
| 20260502114808 | 48 | 160 | 1.0 | 2.0 | 0.00 | 0.14 | 0.14 | 99 | 1010.6 |
| 20260502114304 | 48 | 157 | 0.0 | 1.0 | 0.00 | 0.14 | 0.14 | 99 | 1010.5 |
| 20260502113801 | 47 | 147 | 2.0 | 3.0 | 0.00 | 0.14 | 0.14 | 99 | 1010.6 |
| 20260502113259 | 47 | 114 | 0.0 | 2.0 | 0.00 | 0.14 | 0.14 | 99 | 1010.7 |
| 20260502112757 | 47 | 90 | 0.0 | 2.0 | 0.00 | 0.14 | 0.14 | 99 | 1010.8 |
| 20260502112254 | 47 | 110 | 2.0 | 3.0 | 0.00 | 0.14 | 0.14 | 99 | 1010.7 |
| 20260502111751 | 47 | 108 | 2.0 | 2.0 | 0.00 | 0.14 | 0.14 | 99 | 1011.0 |
| 20260502111249 | 47 | 112 | 2.0 | 2.0 | 0.02 | 0.14 | 0.14 | 99 | 1011.1 |
| 20260502110746 | 47 | 97 | 1.0 | 2.0 | 0.14 | 0.14 | 0.14 | 99 | 1011.2 |
| 20260502110244 | 47 | 125 | 2.0 | 3.0 | 0.24 | 0.14 | 0.14 | 99 | 1011.1 |
| 20260502105742 | 47 | 157 | 0.0 | 1.0 | 0.19 | 0.12 | 0.12 | 99 | 1011.2 |
| 20260502105232 | 47 | 147 | 2.0 | 2.0 | 0.17 | 0.10 | 0.10 | 99 | 1010.9 |
| 20260502104731 | 47 | 194 | 0.0 | 1.0 | 0.17 | 0.09 | 0.09 | 98 | 1011.0 |
| 20260502104228 | 47 | 140 | 1.0 | 3.0 | 0.07 | 0.07 | 0.07 | 98 | 1011.1 |
| 20260502103725 | 47 | 120 | 0.0 | 2.0 | 0.00 | 0.06 | 0.06 | 98 | 1010.9 |
| 20260502103222 | 47 | 173 | 1.0 | 2.0 | 0.00 | 0.06 | 0.06 | 98 | 1010.7 |
| 20260502102720 | 47 | 117 | 0.0 | 0.0 | 0.00 | 0.06 | 0.06 | 98 | 1010.5 |
| 20260502102216 | 47 | 121 | 2.0 | 2.0 | 0.00 | 0.06 | 0.06 | 98 | 1010.2 |
| 20260502101714 | 47 | 90 | 0.0 | 2.0 | 0.00 | 0.06 | 0.06 | 98 | 1010.0 |
| 20260502101212 | 47 | 123 | 1.0 | 2.0 | 0.02 | 0.06 | 0.06 | 98 | 1010.5 |
| 20260502100710 | 47 | 114 | 0.0 | 1.0 | 0.07 | 0.06 | 0.06 | 98 | 1010.6 |
| 20260502100208 | 47 | 107 | 2.0 | 2.0 | 0.14 | 0.05 | 0.05 | 98 | 1010.4 |
| 20260502091142 | 47 | 66 | 0.0 | 1.0 | 0.05 | 0.02 | 0.02 | 97 | 1010.4 |
| 20260502090639 | 47 | 14 | 1.0 | 2.0 | 0.02 | 0.02 | 0.02 | 97 | 1010.8 |
| 20260502090136 | 47 | 99 | 0.0 | 2.0 | 0.00 | 0.02 | 0.02 | 97 | 1010.6 |
| 20260502071533 | 49 | 66 | 0.0 | 0.0 | 0.00 | 0.00 | 0.00 | 87 | 1009.9 |
| 20260502071031 | 49 | 77 | 1.0 | 2.0 | 0.00 | 0.00 | 0.00 | 87 | 1010.0 |
| 20260502070529 | 49 | 157 | 0.0 | 2.0 | 0.00 | 0.00 | 0.00 | 86 | 1010.1 |
| 20260502070028 | 50 | 106 | 0.0 | 1.0 | 0.00 | 0.00 | 0.00 | 85 | 1010.1 |
| 20260502065526 | 50 | 111 | 0.0 | 1.0 | 0.00 | 0.00 | 0.00 | 84 | 1010.3 |
| 20260502065023 | 50 | 166 | 0.0 | 1.0 | 0.00 | 0.00 | 0.00 | 83 | 1010.4 |
| 20260502064521 | 50 | 228 | 2.0 | 2.0 | 0.00 | 0.00 | 0.00 | 81 | 1010.3 |
| 20260502064018 | 51 | 81 | 0.0 | 1.0 | 0.00 | 0.00 | 0.00 | 79 | 1010.1 |
| 20260502063515 | 51 | 72 | 2.0 | 3.0 | 0.00 | 0.00 | 0.00 | 78 | 1010.0 |
| 20260502063013 | 51 | 270 | 3.0 | 3.0 | 0.00 | 0.00 | 0.00 | 78 | 1010.6 |
| 20260502062509 | 51 | 180 | 0.0 | 3.0 | 0.00 | 0.00 | 0.00 | 78 | 1010.1 |
| 20260502062009 | 51 | 127 | 0.0 | 2.0 | 0.00 | 0.00 | 0.00 | 78 | 1010.3 |
| 20260502061506 | 51 | 111 | 1.0 | 2.0 | 0.00 | 0.00 | 0.00 | 78 | 1010.3 |
| 20260502061002 | 51 | 90 | 2.0 | 3.0 | 0.00 | 0.00 | 0.00 | 78 | 1010.1 |
| 20260502060457 | 50 | 144 | 3.0 | 4.0 | 0.00 | 0.00 | 0.00 | 80 | 1010.4 |
| 20260502055954 | 50 | 127 | 3.0 | 3.0 | 0.00 | 0.00 | 0.00 | 81 | 1010.4 |
| 20260502055452 | 50 | 151 | 1.0 | 1.0 | 0.00 | 0.00 | 0.00 | 82 | 1010.4 |
| 20260502054947 | 50 | 97 | 1.0 | 1.0 | 0.00 | 0.00 | 0.00 | 81 | 1010.1 |
| 20260502054444 | 50 | 195 | 0.0 | 0.0 | 0.00 | 0.00 | 0.00 | 82 | 1010.2 |
| 20260502053941 | 51 | 173 | 0.0 | 2.0 | 0.00 | 0.00 | 0.00 | 80 | 1010.2 |
| 20260502053438 | 51 | 101 | 2.0 | 2.0 | 0.00 | 0.00 | 0.00 | 79 | 1010.0 |
| 20260502052936 | 51 | 90 | 2.0 | 2.0 | 0.00 | 0.00 | 0.00 | 80 | 1010.4 |
| 20260502052434 | 51 | 135 | 2.0 | 2.0 | 0.00 | 0.00 | 0.00 | 80 | 1010.2 |
| 20260502051932 | 51 | 113 | 2.0 | 2.0 | 0.00 | 0.00 | 0.00 | 81 | 1010.3 |
| 20260502051430 | 51 | 120 | 0.0 | 2.0 | 0.00 | 0.00 | 0.00 | 78 | 1010.3 |
| 20260502050926 | 51 | 74 | 1.0 | 2.0 | 0.00 | 0.00 | 0.00 | 76 | 1010.5 |
| 20260502050422 | 51 | 180 | 0.0 | 0.0 | 0.00 | 0.00 | 0.00 | 77 | 1010.6 |
| 20260502045920 | 51 | 218 | 2.0 | 3.0 | 0.00 | 0.00 | 0.00 | 74 | 1010.6 |
| 20260502045416 | 52 | 0 | 0.0 | 3.0 | 0.00 | 0.00 | 0.00 | 74 | 1010.3 |
| 20260502044914 | 52 | 184 | 3.0 | 4.0 | 0.00 | 0.00 | 0.00 | 72 | 1010.6 |
| 20260502044409 | 53 | 7 | 0.0 | 2.0 | 0.00 | 0.00 | 0.00 | 71 | 1010.5 |
| 20260502043906 | 53 | 10 | 2.0 | 3.0 | 0.00 | 0.00 | 0.00 | 70 | 1010.6 |
| 20260502043404 | 53 | 228 | 2.0 | 4.0 | 0.00 | 0.00 | 0.00 | 69 | 1010.2 |
| 20260502042903 | 52 | 270 | 1.0 | 2.0 | 0.00 | 0.00 | 0.00 | 69 | 1010.0 |
| 20260502042401 | 52 | 100 | 2.0 | 2.0 | 0.00 | 0.00 | 0.00 | 69 | 1010.4 |
| 20260502041858 | 52 | 66 | 1.0 | 1.0 | 0.00 | 0.00 | 0.00 | 71 | 1010.3 |
| 20260502041355 | 52 | 157 | 0.0 | 2.0 | 0.00 | 0.00 | 0.00 | 70 | 1010.1 |
| 20260502040853 | 52 | 114 | 1.0 | 2.0 | 0.00 | 0.00 | 0.00 | 70 | 1010.2 |
| 20260502040349 | 52 | 180 | 0.0 | 3.0 | 0.00 | 0.00 | 0.00 | 71 | 1010.3 |
| 20260502035845 | 52 | 96 | 2.0 | 2.0 | 0.00 | 0.00 | 0.00 | 73 | 1010.2 |
| 20260502035342 | 52 | 160 | 0.0 | 0.0 | 0.00 | 0.00 | 0.00 | 72 | 1010.2 |
| 20260502034839 | 52 | 160 | 0.0 | 2.0 | 0.00 | 0.00 | 0.00 | 71 | 1010.1 |
| 20260502034338 | 52 | 99 | 0.0 | 0.0 | 0.00 | 0.00 | 0.00 | 71 | 1010.1 |
| 20260502033836 | 53 | 180 | 0.0 | 0.0 | 0.00 | 0.00 | 0.00 | 69 | 1009.9 |
| 20260502033333 | 53 | 90 | 0.0 | 2.0 | 0.00 | 0.00 | 0.00 | 67 | 1010.2 |
| 20260502032830 | 53 | 96 | 2.0 | 2.0 | 0.00 | 0.00 | 0.00 | 67 | 1010.1 |
| 20260502032326 | 53 | 124 | 2.0 | 3.0 | 0.00 | 0.00 | 0.00 | 67 | 1010.4 |
| 20260502031824 | 53 | 100 | 2.0 | 2.0 | 0.00 | 0.00 | 0.00 | 65 | 1010.5 |
| 20260502031322 | 53 | 175 | 0.0 | 2.0 | 0.00 | 0.00 | 0.00 | 65 | 1010.4 |
| 20260502030820 | 53 | 166 | 2.0 | 4.0 | 0.00 | 0.00 | 0.00 | 64 | 1010.4 |
| 20260502030318 | 53 | 353 | 0.0 | 2.0 | 0.00 | 0.00 | 0.00 | 65 | 1010.5 |
| 20260502025815 | 53 | 60 | 0.0 | 3.0 | 0.00 | 0.00 | 0.00 | 65 | 1010.3 |
| 20260502025313 | 53 | 139 | 2.0 | 2.0 | 0.00 | 0.00 | 0.00 | 67 | 1010.2 |
| 20260502024810 | 52 | 99 | 0.0 | 2.0 | 0.00 | 0.00 | 0.00 | 65 | 1010.3 |
| 20260502024308 | 53 | 203 | 0.0 | 1.0 | 0.00 | 0.00 | 0.00 | 66 | 1010.4 |
| 20260502023806 | 53 | 180 | 0.0 | 2.0 | 0.00 | 0.00 | 0.00 | 63 | 1010.1 |
| 20260502023303 | 53 | 180 | 0.0 | 2.0 | 0.00 | 0.00 | 0.00 | 63 | 1010.1 |
| 20260502022800 | 54 | 145 | 0.0 | 1.0 | 0.00 | 0.00 | 0.00 | 62 | 1010.1 |
| 20260502022257 | 54 | 157 | 0.0 | 1.0 | 0.00 | 0.00 | 0.00 | 61 | 1010.5 |
| 20260502021754 | 55 | 188 | 0.0 | 1.0 | 0.00 | 0.00 | 0.00 | 58 | 1010.3 |
| 20260502021251 | 55 | 254 | 1.0 | 3.0 | 0.00 | 0.00 | 0.00 | 57 | 1010.3 |
| 20260502020748 | 56 | 270 | 0.0 | 2.0 | 0.00 | 0.00 | 0.00 | 55 | 1010.1 |
| 20260502020246 | 56 | 236 | 0.0 | 2.0 | 0.00 | 0.00 | 0.00 | 56 | 1010.2 |
| 20260502015743 | 56 | 86 | 2.0 | 4.0 | 0.00 | 0.00 | 0.00 | 55 | 1010.2 |
| 20260502015239 | 56 | 111 | 1.0 | 4.0 | 0.00 | 0.00 | 0.00 | 55 | 1010.2 |
| 20260502014737 | 56 | 315 | 0.0 | 2.0 | 0.00 | 0.00 | 0.00 | 56 | 1010.2 |
| 20260502014233 | 56 | 228 | 2.0 | 3.0 | 0.00 | 0.00 | 0.00 | 54 | 1010.1 |
| 20260502013730 | 56 | 180 | 0.0 | 2.0 | 0.00 | 0.00 | 0.00 | 55 | 1010.2 |
| 20260502013225 | 56 | 101 | 2.0 | 2.0 | 0.00 | 0.00 | 0.00 | 55 | 1010.1 |
| 20260502012722 | 56 | 215 | 1.0 | 4.0 | 0.00 | 0.00 | 0.00 | 57 | 1009.9 |
| 20260502012220 | 55 | 90 | 3.0 | 3.0 | 0.00 | 0.00 | 0.00 | 56 | 1009.9 |
| 20260502011717 | 55 | 195 | 0.0 | 3.0 | 0.00 | 0.00 | 0.00 | 64 | 1009.9 |
| 20260502011213 | 55 | 114 | 2.0 | 2.0 | 0.00 | 0.00 | 0.00 | 64 | 1009.8 |
| 20260502010711 | 54 | 117 | 1.0 | 1.0 | 0.00 | 0.00 | 0.00 | 67 | 1009.7 |
| 20260502010207 | 54 | 172 | 0.0 | 0.0 | 0.00 | 0.00 | 0.00 | 67 | 1009.7 |
| 20260502005704 | 54 | 172 | 0.0 | 0.0 | 0.00 | 0.00 | 0.00 | 63 | 1009.8 |
| 20260502005202 | 54 | 165 | 0.0 | 1.0 | 0.00 | 0.00 | 0.00 | 62 | 1009.6 |
| 20260502004658 | 54 | 337 | 2.0 | 2.0 | 0.00 | 0.00 | 0.00 | 62 | 1009.5 |
| 20260502004154 | 54 | 180 | 0.0 | 0.0 | 0.00 | 0.00 | 0.00 | 60 | 1009.6 |
| 20260502003652 | 55 | 209 | 0.0 | 0.0 | 0.00 | 0.00 | 0.00 | 60 | 1009.3 |
| 20260502003149 | 55 | 203 | 1.0 | 1.0 | 0.00 | 0.00 | 0.00 | 59 | 1009.1 |
| 20260502002645 | 55 | 209 | 0.0 | 0.0 | 0.00 | 0.00 | 0.00 | 57 | 1009.2 |
| 20260502002143 | 55 | 209 | 0.0 | 0.0 | 0.00 | 0.00 | 0.00 | 57 | 1009.2 |
| 20260502001640 | 55 | 209 | 0.0 | 0.0 | 0.00 | 0.00 | 0.00 | 59 | 1009.1 |
| 20260502001138 | 55 | 209 | 0.0 | 0.0 | 0.00 | 0.00 | 0.00 | 56 | 1009.0 |
| 20260502000636 | 55 | 209 | 0.0 | 0.0 | 0.00 | 0.00 | 0.00 | 58 | 1009.0 |
| 20260502000133 | 56 | 209 | 0.0 | 0.0 | 0.00 | 0.00 | 0.00 | 57 | 1008.8 |
| 20260501235629 | 56 | 209 | 0.0 | 0.0 | 0.00 | 0.00 | 0.00 | 57 | 1008.7 |
| 20260501235125 | 56 | 209 | 0.0 | 0.0 | 0.00 | 0.00 | 0.00 | 54 | 1008.8 |
| 20260501234620 | 56 | 209 | 0.0 | 0.0 | 0.00 | 0.00 | 0.00 | 54 | 1008.6 |
| 20260501234118 | 56 | 209 | 0.0 | 0.0 | 0.00 | 0.00 | 0.00 | 54 | 1008.6 |
| 20260501233616 | 57 | 209 | 0.0 | 0.0 | 0.00 | 0.00 | 0.00 | 57 | 1008.5 |
| 20260501233113 | 57 | 209 | 0.0 | 0.0 | 0.00 | 0.00 | 0.00 | 55 | 1008.5 |
| 20260501232609 | 57 | 209 | 0.0 | 0.0 | 0.00 | 0.00 | 0.00 | 51 | 1008.5 |
| 20260501232107 | 58 | 209 | 0.0 | 0.0 | 0.00 | 0.00 | 0.00 | 53 | 1008.6 |
| 20260501231604 | 58 | 209 | 0.0 | 0.0 | 0.00 | 0.00 | 0.00 | 52 | 1008.2 |
| 20260501231102 | 59 | 192 | 0.0 | 1.0 | 0.00 | 0.00 | 0.00 | 50 | 1008.5 |
| 20260501230600 | 59 | 249 | 0.0 | 1.0 | 0.00 | 0.00 | 0.00 | 49 | 1008.3 |
| 20260501230058 | 60 | 114 | 1.0 | 2.0 | 0.00 | 0.00 | 0.00 | 46 | 1008.1 |
| 20260501225555 | 60 | 151 | 0.0 | 1.0 | 0.00 | 0.00 | 0.00 | 44 | 1008.2 |
| 20260501225051 | 60 | 187 | 0.0 | 0.0 | 0.00 | 0.00 | 0.00 | 43 | 1008.1 |
| 20260501224549 | 61 | 187 | 0.0 | 0.0 | 0.00 | 0.00 | 0.00 | 38 | 1008.1 |
| 20260501224046 | 61 | 187 | 0.0 | 2.0 | 0.00 | 0.00 | 0.00 | 36 | 1008.1 |
| 20260501223542 | 61 | 11 | 0.0 | 3.0 | 0.00 | 0.00 | 0.00 | 38 | 1008.1 |
| 20260501223038 | 62 | 209 | 0.0 | 3.0 | 0.00 | 0.00 | 0.00 | 37 | 1008.0 |
| 20260501222535 | 63 | 201 | 2.0 | 4.0 | 0.00 | 0.00 | 0.00 | 35 | 1008.1 |
| 20260501222032 | 63 | 216 | 2.0 | 5.0 | 0.00 | 0.00 | 0.00 | 36 | 1008.0 |
| 20260501221528 | 62 | 135 | 0.0 | 3.0 | 0.00 | 0.00 | 0.00 | 36 | 1008.1 |
| 20260501221026 | 63 | 139 | 2.0 | 3.0 | 0.00 | 0.00 | 0.00 | 36 | 1007.7 |
| 20260501220524 | 62 | 159 | 3.0 | 5.0 | 0.00 | 0.00 | 0.00 | 35 | 1008.1 |
| 20260501220020 | 63 | 157 | 0.0 | 4.0 | 0.00 | 0.00 | 0.00 | 36 | 1008.0 |
| 20260501215517 | 63 | 228 | 2.0 | 4.0 | 0.00 | 0.00 | 0.00 | 36 | 1008.2 |
| 20260501215012 | 63 | 306 | 0.0 | 4.0 | 0.00 | 0.00 | 0.00 | 35 | 1008.0 |
| 20260501214508 | 64 | 249 | 0.0 | 2.0 | 0.00 | 0.00 | 0.00 | 35 | 1008.2 |
| 20260501214004 | 64 | 339 | 2.0 | 4.0 | 0.00 | 0.00 | 0.00 | 35 | 1008.1 |
| 20260501213501 | 64 | 252 | 3.0 | 4.0 | 0.00 | 0.00 | 0.00 | 35 | 1008.1 |
| 20260501213001 | 64 | 240 | 3.0 | 8.0 | 0.00 | 0.00 | 0.00 | 33 | 1008.1 |
| 20260501212458 | 64 | 350 | 3.0 | 4.0 | 0.00 | 0.00 | 0.00 | 34 | 1008.0 |
| 20260501211955 | 64 | 9 | 0.0 | 5.0 | 0.00 | 0.00 | 0.00 | 36 | 1008.3 |
| 20260501211453 | 63 | 7 | 0.0 | 3.0 | 0.00 | 0.00 | 0.00 | 40 | 1008.3 |
| 20260501210950 | 62 | 337 | 1.0 | 4.0 | 0.00 | 0.00 | 0.00 | 39 | 1008.0 |
| 20260501210446 | 64 | 304 | 5.0 | 5.0 | 0.00 | 0.00 | 0.00 | 34 | 1008.2 |
| 20260501205943 | 68 | 305 | 5.0 | 5.0 | 0.00 | 0.00 | 0.00 | 32 | 1007.9 |
| 20260501205440 | 66 | 292 | 2.0 | 4.0 | 0.00 | 0.00 | 0.00 | 33 | 1007.8 |
| 20260501204937 | 65 | 12 | 1.0 | 4.0 | 0.00 | 0.00 | 0.00 | 32 | 1008.1 |
| 20260501204433 | 64 | 275 | 2.0 | 4.0 | 0.00 | 0.00 | 0.00 | 35 | 1008.0 |
| 20260501203929 | 64 | 0 | 0.0 | 3.0 | 0.00 | 0.00 | 0.00 | 36 | 1008.1 |
| 20260501203426 | 63 | 315 | 2.0 | 4.0 | 0.00 | 0.00 | 0.00 | 35 | 1008.0 |
| 20260501202924 | 67 | 249 | 3.0 | 4.0 | 0.00 | 0.00 | 0.00 | 31 | 1008.4 |
| 20260501202421 | 66 | 203 | 1.0 | 4.0 | 0.00 | 0.00 | 0.00 | 35 | 1008.2 |
| 20260501201917 | 65 | 18 | 0.0 | 6.0 | 0.00 | 0.00 | 0.00 | 35 | 1007.9 |
| 20260501201415 | 63 | 219 | 4.0 | 5.0 | 0.00 | 0.00 | 0.00 | 35 | 1008.1 |
| 20260501200911 | 63 | 80 | 5.0 | 6.0 | 0.00 | 0.00 | 0.00 | 37 | 1008.2 |
| 20260501200408 | 63 | 180 | 0.0 | 3.0 | 0.00 | 0.00 | 0.00 | 35 | 1008.1 |
| 20260501195906 | 63 | 106 | 0.0 | 4.0 | 0.00 | 0.00 | 0.00 | 36 | 1008.1 |
| 20260501195401 | 65 | 340 | 5.0 | 6.0 | 0.00 | 0.00 | 0.00 | 33 | 1008.2 |
| 20260501194858 | 64 | 203 | 4.0 | 8.0 | 0.00 | 0.00 | 0.00 | 33 | 1008.2 |
| 20260501194354 | 64 | 337 | 1.0 | 10.0 | 0.00 | 0.00 | 0.00 | 34 | 1008.2 |
| 20260501193850 | 65 | 320 | 3.0 | 7.0 | 0.00 | 0.00 | 0.00 | 33 | 1008.0 |
| 20260501193349 | 63 | 0 | 4.0 | 10.0 | 0.00 | 0.00 | 0.00 | 35 | 1008.3 |
| 20260501192846 | 64 | 358 | 4.0 | 7.0 | 0.00 | 0.00 | 0.00 | 36 | 1008.2 |
| 20260501192343 | 63 | 315 | 2.0 | 9.0 | 0.00 | 0.00 | 0.00 | 35 | 1008.1 |
| 20260501191840 | 64 | 345 | 5.0 | 6.0 | 0.00 | 0.00 | 0.00 | 35 | 1008.4 |
| 20260501191337 | 64 | 303 | 4.0 | 10.0 | 0.00 | 0.00 | 0.00 | 34 | 1008.5 |
| 20260501190834 | 64 | 355 | 2.0 | 13.0 | 0.00 | 0.00 | 0.00 | 36 | 1008.6 |
| 20260501190330 | 63 | 223 | 8.0 | 10.0 | 0.00 | 0.00 | 0.00 | 33 | 1008.5 |
| 20260501185825 | 63 | 311 | 3.0 | 8.0 | 0.00 | 0.00 | 0.00 | 38 | 1008.6 |
| 20260501185321 | 64 | 263 | 5.0 | 16.0 | 0.00 | 0.00 | 0.00 | 34 | 1008.5 |
| 20260501184817 | 64 | 172 | 0.0 | 10.0 | 0.00 | 0.00 | 0.00 | 35 | 1008.9 |
| 20260501184313 | 65 | 309 | 5.0 | 6.0 | 0.00 | 0.00 | 0.00 | 37 | 1008.8 |
| 20260501183809 | 62 | 334 | 3.0 | 6.0 | 0.00 | 0.00 | 0.00 | 36 | 1008.9 |
| 20260501183307 | 62 | 221 | 0.0 | 7.0 | 0.00 | 0.00 | 0.00 | 36 | 1008.9 |
| 20260501182802 | 64 | 199 | 5.0 | 8.0 | 0.00 | 0.00 | 0.00 | 36 | 1009.0 |
| 20260501182259 | 63 | 147 | 2.0 | 5.0 | 0.00 | 0.00 | 0.00 | 37 | 1009.0 |
| 20260501181756 | 63 | 313 | 0.0 | 5.0 | 0.00 | 0.00 | 0.00 | 34 | 1009.1 |
| 20260501181254 | 63 | 26 | 2.0 | 10.0 | 0.00 | 0.00 | 0.00 | 41 | 1008.9 |
| 20260501180751 | 63 | 244 | 5.0 | 10.0 | 0.00 | 0.00 | 0.00 | 37 | 1009.2 |
| 20260501180247 | 61 | 344 | 2.0 | 9.0 | 0.00 | 0.00 | 0.00 | 38 | 1009.2 |
| 20260501175743 | 61 | 324 | 2.0 | 15.0 | 0.00 | 0.00 | 0.00 | 37 | 1009.1 |
| 20260501175241 | 62 | 328 | 2.0 | 6.0 | 0.00 | 0.00 | 0.00 | 37 | 1009.2 |
| 20260501174737 | 62 | 0 | 0.0 | 8.0 | 0.00 | 0.00 | 0.00 | 39 | 1009.2 |
| 20260501174235 | 62 | 315 | 0.0 | 7.0 | 0.00 | 0.00 | 0.00 | 34 | 1009.3 |
| 20260501173733 | 63 | 234 | 3.0 | 6.0 | 0.00 | 0.00 | 0.00 | 37 | 1009.2 |
| 20260501173229 | 62 | 180 | 0.0 | 12.0 | 0.00 | 0.00 | 0.00 | 35 | 1009.2 |
| 20260501172725 | 61 | 255 | 6.0 | 17.0 | 0.00 | 0.00 | 0.00 | 36 | 1009.2 |
| 20260501172220 | 63 | 341 | 4.0 | 6.0 | 0.00 | 0.00 | 0.00 | 35 | 1008.9 |
| 20260501171717 | 62 | 242 | 8.0 | 13.0 | 0.00 | 0.00 | 0.00 | 36 | 1009.0 |
| 20260501171214 | 62 | 210 | 6.0 | 13.0 | 0.00 | 0.00 | 0.00 | 35 | 1009.1 |
| 20260501170711 | 61 | 323 | 6.0 | 16.0 | 0.00 | 0.00 | 0.00 | 36 | 1009.4 |
| 20260501170207 | 62 | 221 | 10.0 | 11.0 | 0.00 | 0.00 | 0.00 | 33 | 1009.3 |
| 20260501165705 | 62 | 29 | 1.0 | 8.0 | 0.00 | 0.00 | 0.00 | 40 | 1009.2 |
| 20260501165202 | 60 | 315 | 2.0 | 4.0 | 0.00 | 0.00 | 0.00 | 37 | 1009.1 |
| 20260501164700 | 63 | 216 | 3.0 | 4.0 | 0.00 | 0.00 | 0.00 | 40 | 1009.1 |
| 20260501164157 | 62 | 322 | 5.0 | 9.0 | 0.00 | 0.00 | 0.00 | 38 | 1009.2 |
| 20260501163653 | 62 | 36 | 3.0 | 8.0 | 0.00 | 0.00 | 0.00 | 37 | 1009.3 |
| 20260501163150 | 61 | 0 | 2.0 | 5.0 | 0.00 | 0.00 | 0.00 | 38 | 1009.3 |
| 20260501162646 | 60 | 327 | 2.0 | 7.0 | 0.00 | 0.00 | 0.00 | 37 | 1009.3 |
| 20260501162143 | 60 | 294 | 2.0 | 11.0 | 0.00 | 0.00 | 0.00 | 39 | 1009.5 |
| 20260501161640 | 60 | 166 | 5.0 | 9.0 | 0.00 | 0.00 | 0.00 | 40 | 1009.3 |
| 20260501161137 | 61 | 3 | 2.0 | 3.0 | 0.00 | 0.00 | 0.00 | 40 | 1009.4 |
| 20260501160633 | 62 | 74 | 4.0 | 8.0 | 0.00 | 0.00 | 0.00 | 40 | 1009.4 |
| 20260501160131 | 61 | 279 | 2.0 | 7.0 | 0.00 | 0.00 | 0.00 | 40 | 1009.7 |
| 20260501155627 | 60 | 45 | 2.0 | 12.0 | 0.00 | 0.00 | 0.00 | 43 | 1009.5 |
| 20260501155125 | 62 | 324 | 3.0 | 5.0 | 0.00 | 0.00 | 0.00 | 40 | 1009.6 |
| 20260501154622 | 60 | 234 | 1.0 | 7.0 | 0.00 | 0.00 | 0.00 | 41 | 1009.8 |
| 20260501154119 | 59 | 266 | 2.0 | 7.0 | 0.00 | 0.00 | 0.00 | 41 | 1009.8 |
| 20260501153616 | 59 | 252 | 9.0 | 13.0 | 0.00 | 0.00 | 0.00 | 45 | 1009.7 |
| 20260501153113 | 60 | 315 | 3.0 | 5.0 | 0.00 | 0.00 | 0.00 | 41 | 1009.9 |
| 20260501152609 | 60 | 303 | 3.0 | 7.0 | 0.00 | 0.00 | 0.00 | 44 | 1010.0 |
| 20260501152107 | 60 | 255 | 0.0 | 7.0 | 0.00 | 0.00 | 0.00 | 43 | 1009.7 |
| 20260501151603 | 59 | 311 | 7.0 | 7.0 | 0.00 | 0.00 | 0.00 | 43 | 1009.8 |
| 20260501151100 | 58 | 250 | 12.0 | 15.0 | 0.00 | 0.00 | 0.00 | 45 | 1009.9 |
| 20260501150555 | 59 | 4 | 2.0 | 7.0 | 0.00 | 0.00 | 0.00 | 43 | 1009.9 |
| 20260501150053 | 59 | 349 | 2.0 | 5.0 | 0.00 | 0.00 | 0.00 | 46 | 1010.2 |
| 20260501145549 | 59 | 304 | 5.0 | 7.0 | 0.00 | 0.00 | 0.00 | 42 | 1010.0 |
| 20260501145047 | 58 | 198 | 1.0 | 10.0 | 0.00 | 0.00 | 0.00 | 45 | 1010.2 |
| 20260501144543 | 57 | 63 | 0.0 | 5.0 | 0.00 | 0.00 | 0.00 | 47 | 1010.1 |
| 20260501144038 | 57 | 343 | 3.0 | 7.0 | 0.00 | 0.00 | 0.00 | 48 | 1010.0 |
| 20260501143535 | 57 | 0 | 3.0 | 3.0 | 0.00 | 0.00 | 0.00 | 50 | 1009.9 |
| 20260501143032 | 56 | 79 | 3.0 | 12.0 | 0.00 | 0.00 | 0.00 | 48 | 1010.1 |
| 20260501142529 | 58 | 241 | 6.0 | 6.0 | 0.00 | 0.00 | 0.00 | 48 | 1010.0 |
| 20260501142025 | 57 | 115 | 0.0 | 6.0 | 0.00 | 0.00 | 0.00 | 47 | 1009.9 |
| 20260501141521 | 55 | 305 | 2.0 | 6.0 | 0.00 | 0.00 | 0.00 | 50 | 1010.0 |
| 20260501141019 | 54 | 309 | 0.0 | 5.0 | 0.00 | 0.00 | 0.00 | 52 | 1010.1 |
| 20260501140515 | 54 | 72 | 3.0 | 3.0 | 0.00 | 0.00 | 0.00 | 51 | 1010.2 |
| 20260501140011 | 55 | 330 | 3.0 | 4.0 | 0.00 | 0.00 | 0.00 | 50 | 1010.2 |
| 20260501135502 | 56 | 349 | 3.0 | 3.0 | 0.00 | 0.00 | 0.00 | 50 | 1010.2 |
| 20260501134959 | 57 | 270 | 0.0 | 3.0 | 0.00 | 0.00 | 0.00 | 55 | 1010.3 |